• MPC Preparation (Info)

  • MPEC 2013-R09 : 2013 RG

    The following Minor Planet Electronic Circular may be linked-to from your own Web pages, but must not otherwise be redistributed electronically.

    A form allowing access to any MPEC is at the bottom of this page.


    Read MPEC 2013-R08 Read MPEC 2013-R10


    M.P.E.C. 2013-R09                                Issued 2013 Sept. 3, 01:08 UT
    
         The Minor Planet Electronic Circulars contain information on unusual
             minor planets and routine data on comets.  They are published
       on behalf of Commission 20 of the International Astronomical Union by the
              Minor Planet Center, Smithsonian Astrophysical Observatory,
                              Cambridge, MA 02138, U.S.A.
    
                 Prepared using the Tamkin Foundation Computer Network
    
                                  MPC@CFA.HARVARD.EDU
                URL https://www.minorplanetcenter.net/    ISSN 1523-6714
    
                                        2013 RG
    
    Observations:
         K13R00G* C2013 09 02.22442 22 25 03.75 -05 19 26.9          20.1 VqER009G96
         K13R00G  C2013 09 02.23139 22 25 02.63 -05 16 52.7          20.0 VqER009G96
         K13R00G  C2013 09 02.23841 22 25 01.47 -05 14 14.9          19.8 VqER009G96
         K13R00G  C2013 09 02.24541 22 25 00.28 -05 11 35.4          20.0 VqER009G96
         K13R00G  C2013 09 02.29288 22 24 51.21 -04 52 39.3          20.0 VqER009G96
         K13R00G  C2013 09 02.29331 22 24 51.11 -04 52 28.0          20.0 VqER009G96
         K13R00G  C2013 09 02.29376 22 24 51.03 -04 52 16.7          19.9 VqER009G96
         K13R00G  C2013 09 02.32126 22 24 45.35 -04 40 32.2          20.6 VqER009G96
         K13R00G  C2013 09 02.32167 22 24 45.27 -04 40 21.2          20.6 VqER009G96
         K13R00G  C2013 09 02.32210 22 24 45.17 -04 40 11.0          20.1 VqER009G96
         K13R00G  C2013 09 02.32249 22 24 45.09 -04 39 59.8          20.1 VqER009G96
         K13R00G KC2013 09 02.33098322 24 28.51 -04 37 24.5          20.2 VuER009H21
         K13R00G KC2013 09 02.33241222 24 28.30 -04 36 46.3          20.2 VuER009H21
         K13R00G KC2013 09 02.33777022 24 27.51 -04 34 22.1          20.0 VuER009H21
         K13R00G KC2013 09 02.34036622 24 27.16 -04 33 11.8          20.3 VuER009H21
         K13R00G KC2013 09 02.34171222 24 26.95 -04 32 35.0          19.8 VuER009H21
         K13R00G KC2013 09 02.36692 22 25 31.72 -04 01 27.6          20.1 RoER009474
         K13R00G KC2013 09 02.36790 22 25 31.64 -04 01 01.1          20.2 RoER009474
         K13R00G KC2013 09 02.36989 22 25 31.52 -04 00 00.2          19.3 RoER009474
         K13R00G KC2013 09 02.37131 22 25 31.50 -03 59 18.6          19.6 RoER009474
         K13R00G KC2013 09 02.37230 22 25 31.50 -03 58 49.3          19.1 RoER009474
         K13R00G KC2013 09 02.37377 22 25 31.41 -03 58 06.2          20.2 RoER009474
         K13R00G  C2013 09 02.39859 22 24 30.03 -04 04 05.7          19.2 VqER009G96
         K13R00G  C2013 09 02.39902 22 24 29.99 -04 03 52.2          19.3 VqER009G96
         K13R00G  C2013 09 02.39946 22 24 29.94 -04 03 38.8          19.5 VqER009G96
         K13R00G  C2013 09 02.39988 22 24 29.84 -04 03 25.5          19.2 VqER009G96
         K13R00G KC2013 09 02.40904 22 25 29.20 -03 40 04.6          19.3 RoER009474
         K13R00G KC2013 09 02.41002 22 25 29.11 -03 39 34.4          19.5 RoER009474
         K13R00G KC2013 09 02.41100 22 25 29.05 -03 39 02.4          18.2 RoER009474
         K13R00G KC2013 09 02.41198 22 25 28.94 -03 38 31.5          19.5 RoER009474
         K13R00G KC2013 09 02.41286 22 25 28.89 -03 38 02.3          19.3 RoER009474
         K13R00G KC2013 09 02.49164 22 25 18.66 -02 52 34.4          19.0 RoER009474
         K13R00G KC2013 09 02.49234 22 25 18.53 -02 52 07.8          19.5 RoER009474
         K13R00G KC2013 09 02.49310 22 25 18.39 -02 51 39.5          19.1 RoER009474
         K13R00G KC2013 09 02.49394 22 25 18.25 -02 51 08.4          19.2 RoER009474
         K13R00G KC2013 09 02.82982 22 26 59.57 +01 57 20.2          18.5 RtER009A79
         K13R00G KC2013 09 02.83337 22 26 59.44 +02 02 19.7          18.0 RtER009A79
         K13R00G KC2013 09 02.83691 22 26 59.32 +02 07 27.6          18.5 RtER009A79
         K13R00G KC2013 09 02.88153222 27 19.70 +03 13 17.7                qER009J95
         K13R00G KC2013 09 02.88351722 27 19.83 +03 16 36.8                qER009J95
         K13R00G KC2013 09 02.88550822 27 20.04 +03 19 57.6          18.6 RqER009J95
         K13R00G KC2013 09 02.99109322 27 24.00 +06 56 13.9          18.2 RqER009J95
         K13R00G KC2013 09 02.99596522 27 24.03 +07 08 26.0          18.5 RqER009J95
         K13R00G KC2013 09 03.00074122 27 24.08 +07 20 39.4          18.6 RqER009J95
    
    Observer details:
    474 Mount John Observatory, Lake Tekapo.  Observers A. C. Gilmore,
        P. M. Kilmartin.  Measurer P. M. Kilmartin.  1.0-m f/7.7 reflector + CCD.
    A79 Zvezdno Obshtestvo Observatory, Plana.  Observers F. Fratev, M. Minkov.
        Measurer F. Fratev.  0.35-m f/3.5 reflector + CCD.
    G96 Mt. Lemmon Survey.  Observer A. Boattini.  Measurers A. Boattini,
        E. J. Christensen, A. R. Gibbs, A. D. Grauer, R. E. Hill, J. A. Johnson,
        R. A. Kowalski, S. M. Larson, R. H. McNaught, F. C. Shelly.  1.5-m
        reflector + CCD.
    H21 Astronomical Research Observatory, Westfield.  Observer R. Holmes.
        Measurers R. Holmes, T. Linder, S. Foglia, L. Buzzi, T. Vorobjov.  0.61-m
        f/4.5 astrograph + CCD.
    J95 Great Shefford.  Observer P. Birtwhistle.  0.40-m f/6.0 Schmidt-Cassegrain
        + CCD.
    
    Orbital elements:
    2013 RG                                                  Earth MOID = 0.0013 AU
    Epoch 2013 Nov. 4.0 TT = JDT 2456600.5                  MPC
    M   5.60252              (2000.0)            P               Q
    n   0.40176243     Peri.   80.89418     +0.54079713     -0.84112414
    a   1.8189601      Node   336.36382     +0.76474991     +0.49511147
    e   0.6050476      Incl.    0.99669     +0.35027994     +0.21765755
    P   2.45           H   29.4           G   0.15           U   6
    Residuals in seconds of arc
    130902 G96  0.1+  1.0+    130902 H21  0.4-  0.6-    130902 474  0.5+  0.9+
    130902 G96  0.0   0.2+    130902 474  1.2+  0.5-    130902 474  0.5+  0.1+
    130902 G96  0.0   0.0     130902 474 (0.5+  2.6-)   130902 474  0.3+  0.4+
    130902 G96  0.2+  0.0     130902 474  0.4-  0.1-    130902 474  0.0   0.2+
    130902 G96  0.0   0.2+    130902 474  0.1+  0.3-    130902 474  0.0   0.4-
    130902 G96  0.2-  0.8+    130902 474  0.6+  0.2-    130902 A79 (0.9-  3.3+)
    130902 G96  0.0   0.8+    130902 474  0.1+  0.6-    130902 A79  0.8-  0.0
    130902 G96  0.0   0.2+    130902 G96  0.8-  0.6-    130902 A79 (0.3-  2.7+)
    130902 G96  0.1+  0.4+    130902 G96  0.3-  0.2-    130902 J95  0.4+  0.2-
    130902 G96  0.1-  0.7-    130902 G96  0.1+  0.2-    130902 J95  0.5-  0.1+
    130902 G96  0.0   0.2+    130902 G96  0.3-  0.3+    130902 J95  0.1-  0.2+
    130902 H21  0.4-  0.2+    130902 474  0.1+  0.2+    130902 J95  0.2+  0.2+
    130902 H21  0.3-  0.0     130902 474  0.1+  0.7-    130902 J95  0.0   0.6-
    130902 H21  0.4-  0.4-    130902 474  0.4+  0.1+    130903 J95  0.0   0.4+
    130902 H21  0.1-  0.7-    130902 474  0.1+  0.2-
    
    Ephemeris:
    2013 RG                  a,e,i = 1.82, 0.61, 1                   q = 0.7184
    Date    TT    R. A. (2000) Decl.     Delta      r     Elong.  Phase     V
    2013 08 04    22 20 27.4 -12 36 38   0.3028  1.3020   159.1    16.1    28.3
    ...
    2013 08 19    22 22 59.5 -12 14 21   0.1462  1.1572   172.7     6.4    26.0
    ...
    2013 08 27    22 23 22.2 -11 36 39   0.06941 1.0798   178.5     1.4    24.0
    ...
    2013 09 02    22 24 30.0 -06 23 20   0.01342 1.0224   174.8     5.1    20.5
    2013 09 03    22 27 29.4 +07 40 14   0.0043201.0129   163.9    16.1    18.5
    2013 09 04    10 19 24.1 +28 12 20   0.0054651.0035    22.3   157.6    28.3
    ...
    2013 09 10    10 23 12.5 +13 28 23   0.06117 0.9480    14.9   164.1
    ...
    2013 09 18    10 24 48.0 +12 28 55   0.1378  0.8784    21.8   154.9    34.3
    ...
    2013 10 03    10 34 41.5 +10 57 45   0.2959  0.7718    33.6   134.2    32.3
    
    A. U. Tomatic                (C) Copyright 2013 MPC           M.P.E.C. 2013-R09
    

    Read MPEC 2013-R08 Read MPEC 2013-R10


    MPEC number:

    Enter an MPEC number in one of the following forms:

    • 1997-B01 (the full form)
    • J97B01 (the packed version of the full form)
    • B01 (the abbreviated form)